EW8275 Weather Reports


Display with metric or nautical units.
time (UTC)temp
F
wind
direction
speed
MPH
gust
MPH
rain 1hr
in
rain 24hr
in
rain mn
in
humidity
%
barometer
mb
20260904062626 70 192 11.0 23.0 0.00 0.08 0.00 84 1009.2
20260904062144 70 195 8.0 18.0 0.00 0.08 0.00 84 1009.4
20260904061704 70 15 8.0 17.0 0.00 0.08 0.00 84 1009.6
20260904061113 70 165 5.0 20.0 0.00 0.08 0.00 84 1009.6
20260904060638 69 217 8.0 20.0 0.00 0.08 0.00 84 1009.6
20260904060121 69 296 6.0 17.0 0.00 0.08 0.00 84 1009.7
20260904055618 69 326 6.0 17.0 0.00 0.24 0.00 84 1009.8
20260904055144 69 213 7.0 21.0 0.00 0.24 0.00 84 1009.8
20260904054620 69 234 9.0 21.0 0.00 0.24 0.00 85 1009.8
20260904054125 69 192 7.0 21.0 0.00 0.24 0.00 85 1009.9
20260904053631 69 200 6.0 20.0 0.00 0.24 0.00 85 1009.8
20260904053148 69 181 8.0 21.0 0.00 0.24 0.00 86 1009.9
20260904052613 69 194 10.0 19.0 0.00 0.24 0.00 86 1010.0
20260904052132 69 215 8.0 18.0 0.00 0.24 0.00 86 1010.0
20260904051622 69 228 6.0 18.0 0.00 0.24 0.00 87 1009.9
20260904051123 69 201 5.0 17.0 0.00 0.24 0.00 87 1010.0
20260904050628 69 167 6.0 16.0 0.00 0.24 0.00 87 1009.9
20260904050152 69 196 8.0 14.0 0.00 0.24 0.00 87 1010.1
20260904045618 69 230 6.0 17.0 0.00 0.24 0.00 87 1010.2
20260904045122 69 229 8.0 21.0 0.00 0.24 0.00 87 1010.5
20260904044642 69 237 7.0 21.0 0.00 0.24 0.00 87 1010.4
20260904044137 69 196 6.0 16.0 0.00 0.24 0.00 86 1010.7
20260904043623 69 173 4.0 15.0 0.00 0.24 0.00 86 1010.7
20260904043111 69 190 6.0 20.0 0.00 0.24 0.00 86 1010.7
20260904042616 69 229 7.0 20.0 0.00 0.24 0.00 86 1010.8
20260904042122 69 184 9.0 18.0 0.00 0.24 0.00 85 1010.8
20260904041622 69 214 9.0 18.0 0.00 0.24 0.00 85 1011.0
20260904041145 69 239 4.0 13.0 0.00 0.24 0.00 85 1011.1
20260904040618 69 188 5.0 13.0 0.00 0.24 0.00 85 1011.1
20260904040142 69 201 5.0 15.0 0.00 0.24 0.00 85 1011.1
20260904035624 69 259 8.0 18.0 0.00 0.24 0.00 85 1011.1
20260904035127 69 223 6.0 14.0 0.00 0.24 0.00 85 1011.3
20260904034642 69 235 5.0 14.0 0.00 0.24 0.00 85 1011.3
20260904034117 69 223 6.0 18.0 0.00 0.24 0.00 86 1011.3
20260904033618 69 233 4.0 15.0 0.00 0.24 0.00 86 1011.3
20260904033125 69 267 6.0 17.0 0.00 0.24 0.00 85 1011.2
20260904032621 69 239 7.0 17.0 0.00 0.24 0.00 85 1011.2
20260904032111 69 288 5.0 18.0 0.00 0.24 0.00 85 1011.4
20260904031615 69 297 6.0 18.0 0.00 0.24 0.00 86 1011.2
20260904031124 69 197 7.0 13.0 0.00 0.24 0.00 86 1011.4
20260904030629 69 211 4.0 17.0 0.00 0.24 0.00 86 1011.4
20260904030114 69 231 8.0 17.0 0.00 0.24 0.00 86 1011.4
20260904025626 69 240 6.0 17.0 0.00 0.24 0.00 86 1011.4
20260904025132 69 173 8.0 17.0 0.00 0.24 0.00 86 1011.4
20260904024616 69 236 8.0 17.0 0.00 0.24 0.00 86 1011.5
20260904024130 69 215 4.0 16.0 0.00 0.24 0.00 86 1011.6
20260904023634 69 191 7.0 16.0 0.00 0.24 0.00 86 1011.7
20260904023116 69 214 5.0 15.0 0.00 0.24 0.00 86 1011.9
20260904022623 69 221 8.0 15.0 0.00 0.24 0.00 86 1011.9
20260904022124 69 194 5.0 14.0 0.00 0.24 0.00 86 1011.9
20260904021625 69 192 5.0 15.0 0.00 0.24 0.00 86 1012.0
20260904021111 69 155 6.0 15.0 0.00 0.24 0.00 86 1012.0
20260904020622 69 232 7.0 15.0 0.00 0.24 0.00 86 1012.0
20260904020124 69 233 5.0 14.0 0.00 0.24 0.00 86 1012.1
20260904015614 69 192 8.0 14.0 0.00 0.24 0.00 86 1012.2
20260904015114 69 187 6.0 14.0 0.00 0.24 0.00 86 1012.3
20260904014617 69 229 6.0 15.0 0.00 0.24 0.00 86 1012.3
20260904014125 69 210 6.0 15.0 0.00 0.24 0.00 86 1012.5
20260904013645 69 229 5.0 11.0 0.00 0.24 0.00 86 1012.5
20260904013130 69 229 5.0 13.0 0.00 0.24 0.00 86 1012.6
20260904012622 69 193 7.0 13.0 0.00 0.24 0.00 86 1012.5
20260904012122 69 175 4.0 12.0 0.00 0.24 0.00 86 1012.6
20260904011617 69 229 8.0 19.0 0.00 0.24 0.00 86 1012.7
20260904011125 69 215 7.0 19.0 0.00 0.24 0.00 86 1012.7
20260904010623 69 23 5.0 14.0 0.00 0.24 0.00 87 1012.7
20260904010202 69 219 7.0 14.0 0.00 0.24 0.00 87 1012.9
20260904005625 69 224 4.0 12.0 0.00 0.24 0.00 87 1013.0
20260904005124 69 217 4.0 11.0 0.00 0.24 0.00 87 1013.1
20260904004634 69 223 6.0 12.0 0.00 0.24 0.00 87 1013.1
20260904004138 69 221 6.0 12.0 0.00 0.24 0.00 87 1013.2
20260904003641 69 236 5.0 14.0 0.00 0.24 0.00 87 1013.1
20260904003159 69 225 7.0 14.0 0.00 0.24 0.00 87 1013.2
20260904002611 69 198 3.0 16.0 0.00 0.24 0.00 86 1013.3
20260904002141 69 227 5.0 16.0 0.00 0.24 0.00 86 1013.4
20260904001623 69 223 7.0 20.0 0.00 0.24 0.00 86 1013.5
20260904001112 69 233 7.0 20.0 0.00 0.24 0.00 86 1013.4
20260904000637 69 232 5.0 12.0 0.00 0.24 0.00 86 1013.5
20260904000149 69 211 4.0 13.0 0.00 0.24 0.00 86 1013.5
20260903235618 69 215 4.0 14.0 0.00 0.24 0.00 86 1013.6
20260903235126 69 243 7.0 14.0 0.00 0.24 0.00 86 1013.5
20260903234627 69 205 4.0 14.0 0.00 0.24 0.00 86 1013.6
20260903234134 69 180 5.0 12.0 0.00 0.24 0.00 86 1013.7
20260903233622 69 215 6.0 12.0 0.00 0.24 0.00 86 1013.6
20260903233131 69 225 5.0 15.0 0.00 0.24 0.00 86 1013.7
20260903232615 69 232 4.0 12.0 0.00 0.24 0.00 86 1013.8
20260903232138 69 234 4.0 12.0 0.00 0.24 0.00 86 1013.8
20260903231619 69 203 5.0 15.0 0.00 0.24 0.00 86 1013.8
20260903231148 69 234 6.0 15.0 0.00 0.24 0.00 86 1013.8
20260903230618 69 236 4.0 13.0 0.00 0.24 0.00 86 1014.0
20260903230145 69 173 6.0 11.0 0.00 0.24 0.00 86 1014.1
20260903225615 69 188 7.0 13.0 0.00 0.24 0.00 86 1014.2
20260903225121 69 223 6.0 15.0 0.00 0.24 0.00 86 1014.1
20260903224621 69 252 6.0 15.0 0.00 0.24 0.00 86 1014.1
20260903224114 69 211 6.0 13.0 0.00 0.24 0.00 86 1014.2
20260903223630 69 226 5.0 14.0 0.00 0.24 0.00 86 1014.2
20260903223132 69 198 5.0 14.0 0.00 0.24 0.00 86 1014.3
20260903222625 69 196 5.0 11.0 0.00 0.24 0.00 86 1014.5
20260903222115 69 225 6.0 13.0 0.00 0.24 0.00 86 1014.7
20260903221622 69 204 7.0 13.0 0.00 0.24 0.00 86 1014.7
20260903221128 69 204 5.0 13.0 0.00 0.24 0.00 86 1014.7
20260903220629 69 234 5.0 14.0 0.00 0.24 0.00 86 1014.7
20260903220117 69 188 5.0 14.0 0.00 0.24 0.00 87 1014.7
20260903215627 69 188 4.0 7.0 0.00 0.24 0.05 87 1014.7
20260903215121 69 203 3.0 10.0 0.00 0.24 0.05 87 1014.7
20260903214614 69 225 5.0 11.0 0.00 0.24 0.05 87 1014.7
20260903214122 69 225 5.0 11.0 0.00 0.24 0.05 87 1014.8
20260903213649 69 234 4.0 11.0 0.00 0.24 0.05 86 1014.9
20260903213157 69 223 3.0 13.0 0.00 0.24 0.05 86 1014.9
20260903212623 69 202 7.0 13.0 0.00 0.24 0.05 86 1014.8
20260903212145 69 194 6.0 11.0 0.00 0.24 0.05 86 1014.9
20260903211649 69 223 4.0 11.0 0.00 0.24 0.05 86 1014.9
20260903211121 69 223 4.0 16.0 0.00 0.24 0.05 86 1015.0
20260903210632 69 204 5.0 16.0 0.00 0.24 0.05 86 1015.0
20260903210107 69 221 7.0 15.0 0.00 0.24 0.05 86 1015.0
20260903205627 69 234 8.0 14.0 0.00 0.24 0.05 86 1015.1
20260903205139 69 206 7.0 14.0 0.00 0.24 0.05 87 1015.0
20260903204627 69 122 3.0 11.0 0.00 0.24 0.05 87 1015.4
20260903204128 69 189 3.0 11.0 0.00 0.24 0.05 87 1015.5
20260903203633 69 235 4.0 9.0 0.00 0.24 0.05 87 1015.5
20260903203116 69 227 5.0 11.0 0.00 0.24 0.05 87 1015.4
20260903202621 69 185 2.0 8.0 0.00 0.24 0.05 87 1015.4
20260903202116 69 130 4.0 9.0 0.00 0.24 0.05 87 1015.4
20260903201628 69 220 4.0 11.0 0.00 0.24 0.05 87 1015.4
20260903201114 69 226 6.0 11.0 0.00 0.24 0.05 87 1015.4
20260903200622 69 217 5.0 13.0 0.00 0.24 0.05 86 1015.3
20260903200110 69 235 5.0 11.0 0.00 0.24 0.05 87 1015.4
20260903195624 69 202 5.0 11.0 0.00 0.28 0.05 87 1015.3
20260903195110 69 215 5.0 15.0 0.00 0.28 0.05 87 1015.4
20260903194620 69 250 7.0 15.0 0.00 0.28 0.05 87 1015.6
20260903194117 69 218 3.0 11.0 0.00 0.28 0.05 87 1015.5
20260903193613 69 198 4.0 11.0 0.00 0.28 0.05 87 1015.5
20260903193136 69 207 3.0 15.0 0.00 0.28 0.05 87 1015.4
20260903192654 69 226 6.0 15.0 0.00 0.28 0.05 87 1015.5
20260903192109 69 269 5.0 12.0 0.00 0.28 0.05 88 1015.4
20260903191632 69 250 4.0 11.0 0.00 0.28 0.05 88 1015.5
20260903191138 69 192 5.0 11.0 0.00 0.28 0.05 87 1015.5
20260903190617 69 216 6.0 11.0 0.00 0.28 0.05 88 1015.5
20260903190153 69 221 7.0 11.0 0.00 0.28 0.05 88 1015.5
20260903185613 69 192 3.0 9.0 0.00 0.28 0.05 87 1015.6
20260903185116 69 210 3.0 9.0 0.00 0.28 0.05 87 1015.6
20260903184617 69 225 5.0 9.0 0.00 0.28 0.05 87 1015.7
20260903184113 69 221 2.0 8.0 0.00 0.28 0.05 87 1015.6
20260903183620 69 227 3.0 9.0 0.00 0.28 0.05 86 1015.5
20260903183130 69 215 3.0 9.0 0.00 0.28 0.05 86 1015.6
20260903182627 69 229 4.0 12.0 0.00 0.28 0.05 86 1015.7
20260903182134 69 221 4.0 8.0 0.00 0.28 0.05 86 1015.7
20260903181615 69 210 3.0 10.0 0.00 0.28 0.05 86 1015.5
20260903181125 69 238 4.0 11.0 0.00 0.28 0.05 85 1015.4
20260903180615 70 172 4.0 11.0 0.00 0.28 0.05 85 1015.6
20260903180114 70 198 4.0 8.0 0.00 0.28 0.05 84 1015.6
20260903175610 70 215 2.0 8.0 0.00 0.28 0.05 84 1015.8
20260903175134 70 191 3.0 8.0 0.00 0.28 0.05 83 1015.8
20260903174632 70 215 4.0 10.0 0.00 0.28 0.05 82 1015.7
20260903174115 71 243 5.0 12.0 0.00 0.28 0.05 82 1015.6
20260903173619 71 241 3.0 12.0 0.00 0.28 0.05 81 1015.9
20260903173131 71 244 3.0 8.0 0.00 0.28 0.05 81 1016.0
20260903172616 71 236 4.0 12.0 0.00 0.28 0.05 81 1016.0
20260903172113 71 257 5.0 12.0 0.00 0.28 0.05 81 1015.9
20260903171639 71 186 5.0 12.0 0.00 0.28 0.05 81 1015.8
20260903171110 71 231 2.0 7.0 0.00 0.28 0.05 80 1015.8
20260903170654 71 189 3.0 8.0 0.00 0.28 0.05 80 1015.8
20260903170117 71 200 3.0 8.0 0.00 0.28 0.05 79 1015.7
20260903165617 72 259 1.0 11.0 0.00 0.28 0.05 79 1015.6
20260903165140 71 210 5.0 8.0 0.00 0.28 0.05 78 1015.6
20260903164620 71 296 3.0 11.0 0.00 0.28 0.05 79 1015.6
20260903164110 71 304 3.0 11.0 0.00 0.28 0.05 79 1015.6
20260903163644 71 309 4.0 9.0 0.00 0.28 0.05 79 1015.7
20260903163120 72 195 3.0 8.0 0.00 0.28 0.05 79 1015.6
20260903162630 72 228 4.0 12.0 0.00 0.28 0.05 78 1015.9
20260903162146 72 200 4.0 14.0 0.00 0.28 0.05 78 1016.2
20260903161619 72 251 4.0 14.0 0.00 0.28 0.05 77 1016.2
20260903161110 72 163 5.0 13.0 0.00 0.28 0.05 77 1016.1
20260903160620 72 294 5.0 11.0 0.00 0.28 0.05 77 1015.8
20260903160129 72 239 3.0 9.0 0.00 0.28 0.05 78 1015.7
20260903155622 71 290 4.0 9.0 0.00 0.28 0.05 78 1015.7
20260903155131 71 221 3.0 9.0 0.00 0.28 0.05 78 1015.8
20260903154613 71 219 3.0 6.0 0.00 0.28 0.05 79 1015.9
20260903154129 72 250 2.0 8.0 0.00 0.28 0.05 79 1015.9
20260903153615 72 250 3.0 8.0 0.00 0.28 0.05 78 1015.9
20260903153139 72 240 4.0 10.0 0.00 0.28 0.05 78 1015.9
20260903152625 72 294 4.0 10.0 0.00 0.28 0.05 77 1016.1
20260903152131 72 106 4.0 12.0 0.00 0.28 0.05 77 1016.1
20260903151631 72 257 5.0 13.0 0.00 0.28 0.05 77 1016.2
20260903151113 72 323 5.0 13.0 0.00 0.28 0.05 76 1016.1
20260903150632 72 231 4.0 12.0 0.00 0.28 0.05 76 1016.0
20260903150139 72 311 4.0 12.0 0.00 0.28 0.05 77 1016.1
20260903145638 72 247 4.0 11.0 0.00 0.28 0.05 77 1016.0
20260903145115 72 33 2.0 10.0 0.00 0.28 0.05 78 1016.1
20260903144641 72 216 3.0 10.0 0.00 0.28 0.05 77 1016.0
20260903144109 72 200 5.0 12.0 0.00 0.28 0.05 77 1016.0
20260903143625 72 210 5.0 12.0 0.00 0.28 0.05 76 1016.0
20260903143129 72 79 3.0 10.0 0.00 0.28 0.05 75 1016.0
20260903142630 73 215 3.0 11.0 0.00 0.28 0.05 75 1015.9
20260903142116 72 304 5.0 11.0 0.00 0.28 0.05 75 1015.9
20260903141615 72 212 4.0 11.0 0.00 0.28 0.05 76 1016.0
20260903141119 72 233 3.0 11.0 0.00 0.28 0.05 75 1015.9
20260903140640 72 160 4.0 11.0 0.00 0.28 0.05 74 1015.9
20260903140123 72 198 2.0 7.0 0.00 0.28 0.05 75 1016.0
20260903135636 72 273 4.0 12.0 0.00 0.28 0.05 76 1016.0
20260903135111 72 243 3.0 12.0 0.00 0.28 0.05 76 1015.9
20260903134628 72 207 5.0 10.0 0.00 0.28 0.05 75 1016.0
20260903134133 72 215 4.0 11.0 0.00 0.28 0.05 76 1016.0
20260903133620 72 202 5.0 11.0 0.00 0.28 0.05 76 1015.9
20260903133112 73 311 4.0 12.0 0.00 0.28 0.05 74 1015.9
20260903132625 74 169 2.0 17.0 0.00 0.28 0.05 74 1015.8
20260903132129 72 195 5.0 17.0 0.00 0.28 0.05 76 1015.8
20260903131617 72 236 4.0 13.0 0.00 0.28 0.05 75 1016.0
20260903131120 72 281 5.0 17.0 0.00 0.28 0.05 76 1015.7
20260903130636 72 237 5.0 17.0 0.00 0.28 0.05 77 1015.7
20260903130113 72 190 3.0 15.0 0.00 0.28 0.05 76 1015.8
20260903125612 73 329 4.0 15.0 0.00 0.28 0.05 75 1015.6
20260903125128 74 260 5.0 15.0 0.00 0.28 0.05 75 1015.5
20260903124614 72 360 3.0 11.0 0.00 0.28 0.05 76 1015.5
20260903124110 72 234 5.0 11.0 0.00 0.28 0.05 76 1015.6
20260903123615 72 270 3.0 14.0 0.00 0.28 0.05 80 1015.6
20260903123141 71 246 4.0 14.0 0.00 0.28 0.05 78 1015.7
20260903122626 72 202 3.0 9.0 0.00 0.28 0.05 78 1015.6
20260903122129 72 273 3.0 17.0 0.00 0.28 0.05 76 1015.6
20260903121621 73 230 5.0 17.0 0.00 0.28 0.05 77 1015.6
20260903121140 72 349 4.0 10.0 0.00 0.28 0.05 77 1015.7
20260903120627 72 76 4.0 11.0 0.00 0.28 0.05 78 1015.5
20260903120116 73 260 4.0 12.0 0.00 0.28 0.05 77 1015.4
20260903115647 74 196 4.0 12.0 0.00 0.28 0.05 77 1015.2
20260903115121 73 238 3.0 13.0 0.00 0.28 0.05 78 1015.4
20260903114628 72 238 5.0 13.0 0.00 0.28 0.05 78 1015.3
20260903114130 71 209 6.0 12.0 0.00 0.28 0.05 80 1015.3
20260903113612 71 166 5.0 17.0 0.00 0.28 0.05 80 1015.3
20260903113144 71 240 4.0 17.0 0.00 0.28 0.05 81 1015.4
20260903112627 71 289 4.0 10.0 0.00 0.28 0.05 82 1015.4
20260903112119 71 242 4.0 10.0 0.00 0.28 0.05 81 1015.4
20260903111627 72 177 3.0 10.0 0.00 0.28 0.05 81 1015.4
20260903111116 71 198 4.0 11.0 0.00 0.28 0.05 83 1015.4
20260903110631 70 255 2.0 11.0 0.00 0.28 0.05 83 1015.3
20260903110120 70 284 3.0 10.0 0.00 0.28 0.05 84 1015.4
20260903105614 70 229 5.0 10.0 0.00 0.28 0.05 83 1015.3
20260903105127 70 251 3.0 10.0 0.00 0.28 0.05 83 1015.4
20260903104619 70 206 3.0 10.0 0.00 0.28 0.05 83 1015.4
20260903104143 70 271 4.0 9.0 0.00 0.28 0.05 84 1015.4
20260903103626 70 133 4.0 11.0 0.00 0.28 0.05 84 1015.4
20260903103136 70 222 4.0 11.0 0.00 0.28 0.05 83 1015.3
20260903102619 70 158 5.0 10.0 0.00 0.28 0.05 83 1015.4
20260903102131 71 36 3.0 14.0 0.00 0.28 0.05 82 1015.3
20260903101622 71 271 5.0 11.0 0.00 0.28 0.05 83 1015.3
20260903101129 70 202 4.0 12.0 0.00 0.28 0.05 85 1015.3
20260903100616 70 227 5.0 14.0 0.00 0.28 0.05 83 1015.3
20260903100125 71 257 6.0 14.0 0.00 0.28 0.05 83 1015.2
20260903095613 71 198 5.0 11.0 0.00 0.28 0.05 84 1015.2
20260903095151 71 71 4.0 10.0 0.00 0.28 0.05 86 1015.2
20260903094631 70 211 4.0 13.0 0.00 0.28 0.05 87 1015.3
20260903094124 69 246 5.0 13.0 0.00 0.28 0.05 86 1015.2
20260903093622 69 238 6.0 12.0 0.00 0.28 0.05 87 1015.1
20260903093107 69 302 4.0 13.0 0.00 0.28 0.05 87 1015.0
20260903092639 69 218 6.0 13.0 0.00 0.28 0.05 87 1014.9
20260903092143 69 261 3.0 13.0 0.00 0.28 0.05 89 1014.9
20260903091626 69 171 3.0 13.0 0.00 0.28 0.05 89 1015.0
20260903091136 69 227 2.0 12.0 0.00 0.28 0.05 89 1015.1
20260903090638 69 184 5.0 9.0 0.00 0.28 0.05 89 1015.2
20260903090110 68 267 2.0 9.0 0.00 0.28 0.05 91 1014.9
20260903085639 68 336 3.0 7.0 0.00 0.28 0.05 91 1014.9
20260903085117 68 187 3.0 11.0 0.00 0.28 0.05 91 1014.9
20260903084628 68 215 4.0 12.0 0.00 0.28 0.05 91 1015.0
20260903084139 68 217 4.0 12.0 0.00 0.28 0.05 92 1014.7
20260903083647 68 248 4.0 10.0 0.00 0.28 0.05 93 1014.6
20260903083140 68 196 4.0 12.0 0.00 0.28 0.05 93 1014.6
20260903082618 68 148 4.0 12.0 0.00 0.28 0.05 93 1014.4
20260903082125 67 219 5.0 13.0 0.00 0.28 0.05 94 1014.5
20260903081628 67 261 5.0 13.0 0.00 0.28 0.05 94 1014.5
20260903081116 67 228 6.0 13.0 0.00 0.28 0.05 94 1014.6
20260903080638 67 277 3.0 11.0 0.00 0.28 0.05 95 1014.7
20260903080201 67 238 3.0 12.0 0.00 0.28 0.05 95 1014.6
20260903075636 67 222 4.0 10.0 0.00 0.28 0.05 95 1014.5
20260903075124 66 240 4.0 7.0 0.00 0.28 0.05 95 1014.6
20260903074636 66 195 2.0 10.0 0.00 0.28 0.05 95 1014.5
20260903074116 66 217 4.0 10.0 0.04 0.28 0.05 95 1014.6
20260903073628 66 203 4.0 10.0 0.04 0.28 0.05 95 1014.7
20260903073110 66 210 3.0 8.0 0.04 0.28 0.05 95 1014.8
20260903072619 66 311 3.0 9.0 0.04 0.28 0.05 95 1014.8
20260903072114 66 223 3.0 9.0 0.04 0.28 0.05 95 1014.5
20260903071619 66 293 3.0 6.0 0.04 0.28 0.05 95 1014.7
20260903071125 66 220 2.0 7.0 0.08 0.28 0.05 95 1014.6
20260903070616 65 221 3.0 10.0 0.08 0.28 0.05 95 1014.6
20260903070120 65 229 4.0 10.0 0.08 0.28 0.05 95 1014.8
20260903065706 65 217 3.0 9.0 0.08 0.28 0.05 95 1014.8
20260903065117 65 234 5.0 10.0 0.08 0.28 0.05 95 1014.7
20260903064624 65 223 4.0 10.0 0.08 0.24 0.04 95 1014.7
20260903064133 65 164 5.0 10.0 0.16 0.24 0.04 95 1014.6
20260903063613 65 219 5.0 10.0 0.16 0.24 0.04 95 1014.6
20260903063120 65 299 5.0 13.0 0.16 0.24 0.04 95 1014.6